ELECTRON R/B (44075 NORAD) Tracking and Keplerian Element Data

This shows tracking and keplerian element data for the satellite.

Feedback or suggestion? Click here.




ElementValue
Catalog44075
NameELECTRON R/B
Epoch Orbit273
Epoch Day105.02652912
Epoch Year2019
RAAN342.777
Inclination39.5072
Eccentricity0.0015775
Argument of Perigee35.1739
Mean Anonmoly325.2167
Mean Motion16.43086136
Decay Rate0.13679319
L11 44075U 19016C 19105.02652912 .13679319 66344-5 47274-3 0 9994
L22 44075 39.5072 342.7770 0015775 35.1739 325.2167 16.43086136 2737

Live tracking and technical data element details for ELECTRON R/B (NORAD 44075). ELECTRON R/B can be tracked NOW for your location showing map with azimuth and elevation plus other details from your city location.

Track the satellite on the map from your city or location and see movement details for azimuth, elevation, latitude, longitude, range, height, and movement on the map or in text.







IsCatalogInMostPopularTable: catalog: 44075, numindb: 6
Update: records affected: 1



GetName: 44075 ELECTRON R/B

Hit Count: updated at: Tue, 23 Apr 2019 02:20:13 GMT